Location: Dehesa de la Cepeda
(40.6574°N, 4.3013°W)
Time: 21:42:59
(UTC+00:00)

Vanguard 3 - Pass Details

Date: 08 August 2021
Orbit: 510 x 3260 km, 33.3° (Epoch: 22 September)

Event Time Altitude Azimuth Distance (km) Brightness Sun altitude
Rises 23:48:07 0° 278° (W) 6,951 12.1 -32.6°
Reaches altitude 10° 23:54:35 10° 265° (W) 6,132 11.6 -32.8°
Maximum altitude 00:06:39 20° 227° (SW) 5,292 10.9 -33.1°
Enters shadow 00:06:56 20° 225° (SW) 5,287 10.9 -33.1°
